GFSSGP_850_temp_057.txt.gz
Temp
19 18 18 17 18 19 20 22 22 21 22 26 26 25 22 23 21 19 17 18 18 18 17 18 18 19 19 19 19 19 19 18 18 18 18 18 18 18 18 18 17 18 18 18 19 18 18 18 19
19 19 17 18 20 19 20 23 23 22 25 25 25 24 23 19 16 16 17 18 18 18 18 18 19 19 19 19 19 19 19 18 18 19 19 18 18 18 18 18 18 18 18 18 18 18 18 18 18
19 18 18 19 20 20 20 23 24 24 26 25 24 23 22 17 16 16 18 18 17 18 18 18 18 19 19 19 19 19 19 19 18 19 18 18 19 18 19 19 18 18 18 18 18 18 18 18 18
18 18 19 19 20 21 20 22 27 27 26 24 23 22 19 17 16 18 18 18 18 18 19 18 18 19 19 19 19 19 18 19 19 19 18 18 18 18 18 18 18 18 18 18 18 18 18 18 18
18 19 20 20 21 20 23 26 26 26 25 23 22 20 18 18 18 19 18 18 18 18 18 18 18 19 19 19 19 19 19 19 19 19 18 18 18 19 19 18 18 18 18 18 18 18 18 18 18
19 18 19 19 20 21 24 25 28 27 24 22 20 20 18 19 19 18 18 18 19 19 18 18 18 19 19 19 19 19 19 19 19 19 19 18 19 19 19 18 18 19 19 18 18 19 19 19 18
21 21 20 19 20 22 25 23 28 26 24 22 21 20 17 18 18 18 18 19 19 19 18 18 18 19 19 19 19 19 19 19 19 19 19 19 18 18 19 19 19 19 19 18 18 19 19 19 19
22 23 23 19 21 22 28 29 27 25 24 22 21 19 17 19 19 19 19 19 18 19 19 19 19 19 19 19 19 19 19 19 19 19 19 19 18 19 19 19 19 19 19 18 19 19 19 19 19
23 23 23 23 22 26 26 26 27 26 24 23 23 20 19 19 19 19 19 18 18 19 19 19 19 19 19 19 19 20 19 19 19 18 18 18 19 19 19 19 19 19 19 19 19 19 19 19 19
24 22 23 25 25 25 27 26 27 27 23 21 20 19 19 19 19 19 19 19 19 19 19 19 19 19 20 20 20 19 19 19 19 19 19 19 19 19 18 19 19 19 18 19 19 19 19 19 18
26 24 23 25 25 26 29 28 30 27 23 20 20 19 19 19 19 20 19 19 19 20 20 19 19 20 20 20 20 19 19 19 19 19 19 20 19 18 18 18 19 18 18 20 19 19 19 19 19
26 25 25 26 26 28 27 29 30 27 23 21 20 20 20 20 20 20 20 20 19 20 20 19 20 19 19 19 20 20 20 20 20 20 19 19 19 19 19 19 18 19 18 20 20 19 19 19 19
28 25 27 27 27 27 26 28 28 25 22 20 20 20 20 20 20 20 21 21 20 20 20 20 20 20 19 19 20 20 20 20 20 20 20 18 18 19 19 19 18 19 18 19 19 19 19 20 19
29 26 27 28 26 27 27 27 28 25 22 21 20 20 20 20 20 20 20 21 21 21 20 20 20 20 19 20 20 19 20 20 20 20 20 19 19 19 19 19 18 19 19 19 19 19 19 19 20
29 29 27 28 27 25 27 25 24 23 24 22 21 20 20 20 20 21 20 21 21 21 21 21 21 21 20 20 20 20 20 21 20 20 20 20 19 19 19 19 20 19 19 19 19 19 19 19 19
28 28 27 29 28 27 26 19 21 26 22 23 23 21 21 21 21 21 21 21 21 22 22 21 21 21 21 20 20 20 20 20 21 20 20 20 20 19 19 19 19 19 19 19 19 19 20 20 20
26 26 27 29 30 31 28 18 21 26 24 23 24 23 22 21 21 21 21 22 22 22 21 22 21 21 21 21 21 20 21 20 20 20 20 20 20 20 20 20 20 19 19 19 19 19 19 20 20
24 26 27 28 30 31 24 22 20 21 21 24 23 23 23 22 22 22 22 22 22 22 22 22 21 21 21 21 20 20 20 20 20 20 21 21 20 20 20 20 19 19 20 20 20 20 19 20 20
27 28 28 30 31 31 29 23 23 23 24 25 26 23 23 24 23 23 22 22 22 22 22 22 21 21 21 20 21 21 20 20 20 20 20 20 20 20 20 20 19 19 20 19 19 19 20 20 20
27 27 27 30 31 31 26 23 23 22 21 22 23 23 24 25 25 25 24 23 23 23 23 22 22 21 21 20 21 21 20 20 20 20 20 20 20 20 19 19 19 19 19 19 19 19 20 20 20
27 26 27 28 31 30 27 24 24 23 21 21 22 25 25 26 26 26 25 25 24 23 23 22 22 21 21 20 20 20 20 20 20 20 20 20 20 20 20 19 19 19 19 19 19 19 19 20 20
25 28 29 29 29 25 29 24 21 23 23 22 23 23 24 26 26 26 25 25 24 24 23 23 22 21 21 20 20 20 21 20 20 20 21 20 20 20 20 20 19 20 19 19 20 20 20 19 20
27 28 29 29 28 28 28 27 23 24 24 24 24 24 24 26 26 26 25 25 24 24 23 23 22 21 21 20 20 21 21 21 21 20 20 21 20 20 20 20 20 19 19 20 19 19 20 20 20
29 28 28 28 27 26 26 27 26 26 25 26 25 25 24 26 27 26 25 25 25 24 23 23 22 22 21 20 20 21 21 21 21 21 21 21 21 21 20 20 20 20 19 20 19 19 19 20 20
28 25 23 24 24 25 25 27 25 30 29 28 28 26 25 28 27 26 25 25 24 24 23 23 23 22 22 21 21 21 21 21 21 21 21 21 21 21 21 20 20 20 20 20 19 19 19 20 20
27 26 23 21 23 25 26 26 27 29 33 34 31 29 29 29 28 27 26 25 25 25 24 23 23 23 22 22 22 22 21 21 21 22 21 21 21 21 21 21 21 21 21 21 20 20 20 20 21
26 26 26 24 25 24 25 27 28 30 30 32 33 31 30 30 29 28 27 26 26 25 24 24 23 23 23 23 23 22 22 21 22 22 22 21 21 21 21 21 22 21 21 21 20 20 20 20 20
28 27 25 26 23 23 26 26 27 28 30 29 31 32 32 31 29 28 27 26 26 26 26 24 24 24 24 23 23 23 24 23 22 22 22 22 22 22 21 22 22 22 22 21 21 20 20 19 20
27 26 27 25 22 22 23 27 28 28 30 30 31 32 33 32 30 29 27 27 28 27 26 25 24 24 24 24 24 23 24 25 24 22 23 23 22 22 22 22 22 22 22 22 21 21 20 20 20
28 28 25 26 23 23 23 26 29 30 31 32 31 34 33 33 31 29 28 27 28 27 26 26 25 25 25 25 24 23 23 23 24 23 23 23 23 23 21 21 22 21 21 21 21 21 21 21 20

GFSSGP_850_temp_060.txt.gz
Temp
19 18 17 17 18 18 20 22 19 22 24 25 24 24 21 19 20 18 18 18 18 18 18 18 18 18 19 19 19 19 19 19 19 18 19 18 18 18 18 18 18 18 19 19 18 18 18 18 18
19 18 18 18 19 19 20 20 21 21 22 24 23 23 21 17 16 16 17 17 18 18 18 18 18 19 19 19 19 19 19 19 19 19 19 18 18 18 17 17 18 18 18 18 18 18 18 18 17
19 18 18 18 19 19 20 21 23 24 24 24 23 21 19 17 16 17 17 18 18 18 17 18 19 19 19 19 19 19 19 19 19 18 18 18 18 18 18 17 17 18 18 18 18 19 18 18 18
19 18 18 19 20 21 21 22 23 24 25 23 21 19 17 16 17 17 17 18 18 18 18 19 19 19 19 19 19 19 19 19 18 17 17 18 18 18 18 18 18 18 18 18 18 18 18 18 17
19 19 19 19 20 19 21 21 20 23 24 22 21 17 16 17 17 17 17 18 18 18 18 18 19 19 19 19 19 19 19 19 18 18 18 18 18 18 18 18 18 18 18 18 18 18 18 18 18
19 17 19 19 20 22 23 22 21 23 22 20 19 19 17 18 17 17 17 17 19 18 18 19 19 19 19 19 19 19 19 19 18 18 19 18 19 19 19 18 18 18 18 18 19 18 18 18 17
18 19 20 20 21 20 24 22 22 23 22 21 20 18 16 18 17 17 17 18 18 18 19 19 19 19 19 19 19 19 19 19 19 18 19 19 19 19 19 18 18 18 18 18 19 18 18 18 17
20 19 20 19 20 21 25 23 23 23 22 20 20 17 16 18 17 17 17 18 18 19 19 19 19 20 19 19 20 19 19 19 19 19 19 19 19 19 19 19 19 19 19 19 19 19 19 18 17
20 21 20 22 23 23 23 25 23 23 21 22 21 18 18 18 17 17 17 18 18 18 19 19 20 20 19 20 19 19 19 19 19 19 19 19 19 19 19 18 19 19 19 19 19 19 18 18 17
21 19 21 24 23 24 25 24 23 22 21 20 19 18 18 18 18 18 18 18 18 18 19 20 20 20 20 20 20 19 19 19 19 19 19 19 19 19 19 18 18 19 19 19 19 19 19 18 17
22 20 23 25 26 25 25 26 24 21 20 19 18 18 18 18 18 18 17 18 19 19 19 20 20 20 20 20 20 20 19 19 19 19 19 19 19 19 19 18 18 19 19 19 19 19 19 19 17
21 24 25 26 26 26 26 26 24 24 21 21 21 19 18 18 18 18 17 18 19 20 20 20 20 20 20 20 20 20 19 19 20 19 19 19 19 19 19 19 18 19 19 19 19 19 19 19 18
23 24 26 26 26 26 26 26 24 23 21 20 19 19 18 18 18 18 18 19 19 20 20 21 20 20 20 20 20 20 20 20 20 19 19 19 19 19 19 19 19 19 19 19 19 19 19 19 19
25 25 26 27 27 25 26 26 24 21 20 19 19 19 19 19 19 19 18 19 19 20 20 21 20 20 20 20 20 20 20 20 20 20 19 19 19 19 20 19 19 19 19 19 19 19 19 19 19
25 25 27 27 28 25 26 24 22 20 20 20 19 19 19 19 19 19 19 19 20 20 21 20 20 20 20 20 19 20 20 20 20 20 20 19 20 19 19 19 19 19 19 19 19 19 19 19 19
24 24 24 27 26 25 25 22 21 21 20 20 20 19 19 19 20 20 20 20 20 20 20 20 20 20 20 20 20 19 20 20 20 20 20 20 20 20 19 19 20 19 19 19 19 19 19 20 20
22 21 23 26 27 25 24 21 22 21 21 20 20 20 20 20 20 20 20 20 21 20 20 20 20 20 20 20 20 20 20 20 20 20 20 20 20 20 19 19 19 19 19 19 19 19 19 19 20
21 22 23 25 28 26 24 22 22 22 22 21 20 20 20 20 20 20 21 21 21 21 20 21 20 20 20 20 21 20 20 20 20 20 20 20 20 20 20 19 20 19 19 20 19 19 19 19 20
23 23 23 26 27 25 22 22 22 23 21 22 21 20 20 20 21 21 21 21 21 21 21 21 21 21 20 20 20 20 20 20 20 20 20 20 20 20 20 20 20 19 19 19 19 19 19 19 20
23 24 25 26 28 28 24 24 23 22 21 22 22 22 21 20 21 21 21 21 21 21 21 21 21 21 21 21 21 21 20 20 20 20 20 20 20 20 20 20 20 19 19 19 19 19 19 19 20
23 23 24 25 27 27 24 21 21 21 22 22 23 22 22 22 21 21 22 22 21 21 21 21 21 21 21 21 21 21 21 20 20 20 20 20 20 19 20 20 20 19 19 19 19 19 20 19 20
22 25 26 26 26 24 26 19 21 21 21 22 21 23 23 22 22 22 21 22 22 22 22 22 22 22 22 21 21 20 21 21 21 21 20 20 20 19 19 19 19 19 19 19 19 19 19 20 20
24 25 25 26 24 24 26 22 21 22 21 22 23 23 23 23 24 23 23 23 22 22 22 22 22 22 22 22 21 21 20 22 22 21 20 20 20 19 20 20 19 19 19 20 19 19 19 19 19
26 25 24 24 22 22 24 26 22 21 23 24 24 23 23 23 24 24 24 23 22 22 23 22 22 22 22 22 21 21 21 21 21 21 20 20 20 20 20 20 20 20 20 19 19 19 19 19 19
25 22 21 20 21 21 23 22 26 24 25 25 25 25 24 24 25 25 24 23 22 22 23 23 23 22 22 22 21 21 21 21 21 21 21 20 20 20 20 20 20 20 20 19 19 19 19 19 19
23 24 20 20 19 23 22 23 26 25 27 26 25 26 25 25 24 25 25 24 24 24 24 23 23 23 23 22 22 21 21 21 21 21 21 21 20 21 21 20 20 20 20 20 19 20 20 19 19
23 22 24 20 21 20 21 25 26 26 25 27 27 26 25 26 25 25 25 24 24 24 24 24 24 23 23 23 22 22 22 21 21 22 21 21 21 21 21 21 21 21 21 20 20 20 20 20 20
25 23 23 18 22 21 21 23 26 26 26 26 27 27 26 25 25 25 26 24 24 24 25 25 24 24 23 23 23 22 22 22 22 22 22 21 21 21 21 21 21 21 21 21 20 20 20 20 20
24 24 23 22 19 22 20 24 24 25 25 25 26 28 27 26 25 26 26 25 24 24 25 25 24 24 24 23 23 23 22 22 22 22 22 22 21 21 21 21 21 21 21 21 21 20 20 20 21
24 23 23 23 21 19 20 25 27 26 26 26 27 29 28 27 27 27 27 25 24 24 24 25 25 24 24 24 24 23 23 22 22 22 23 23 22 22 21 21 21 21 21 22 21 21 21 20 21

GFSSGP_850_temp_063.txt.gz
Temp
18 18 17 17 18 18 20 20 20 22 23 23 22 22 21 18 20 17 17 18 18 18 18 18 19 19 19 19 19 19 19 19 19 18 18 18 18 18 18 18 18 18 18 18 17 18 18 18 18
18 17 17 17 19 19 20 20 20 21 21 23 22 21 19 17 16 16 17 18 18 18 19 18 18 19 19 19 19 19 19 19 19 19 18 18 18 18 18 18 17 18 18 18 17 17 18 17 18
18 17 17 18 19 20 20 20 21 23 22 23 20 19 18 16 15 16 18 18 18 18 18 18 18 19 19 19 19 19 19 19 19 19 19 19 18 18 18 18 18 18 18 18 17 18 17 17 16
17 17 18 19 20 19 20 21 22 24 22 21 19 17 17 16 16 17 18 18 18 18 18 18 18 19 19 19 19 19 19 18 18 18 18 19 18 18 18 18 18 18 18 18 18 18 17 17 17
17 18 19 19 20 20 21 20 22 22 21 20 20 17 15 15 17 17 17 18 18 18 18 19 19 19 19 19 19 19 18 18 18 17 17 18 17 18 18 18 19 18 18 18 18 17 18 17 17
18 18 19 19 20 21 22 21 21 22 20 18 17 17 16 16 17 17 17 18 18 19 19 19 19 19 19 19 19 19 18 18 18 17 17 18 18 18 18 19 19 19 19 19 18 17 17 17 17
18 18 20 20 21 21 23 22 21 21 21 20 18 17 16 16 16 17 17 18 18 18 19 19 19 19 19 19 19 19 18 19 18 18 18 18 18 18 18 18 18 18 18 18 18 18 17 17 17
19 19 20 20 21 22 24 22 22 22 22 20 19 16 15 16 16 17 17 17 18 18 19 19 19 19 19 19 19 19 19 19 19 19 19 19 19 19 18 18 18 18 18 18 18 18 17 17 17
20 19 18 21 21 23 24 22 23 21 20 21 20 19 17 17 16 17 17 17 17 18 19 19 19 19 19 20 19 19 19 19 19 19 19 19 19 18 18 18 18 18 18 18 18 18 18 18 17
19 18 20 23 24 24 24 24 22 21 21 19 18 18 17 16 16 17 17 17 17 18 18 19 19 20 20 20 20 19 19 19 19 19 19 18 18 18 18 18 18 18 18 18 18 18 18 18 18
20 18 21 23 25 25 24 24 23 21 20 19 17 16 17 16 17 17 17 18 18 19 19 20 20 20 20 20 20 19 19 19 19 18 19 19 19 19 19 19 19 19 19 18 19 18 18 18 18
19 21 22 23 25 25 25 25 23 22 22 21 20 18 17 17 17 17 18 18 18 19 19 20 20 20 20 20 20 19 19 19 19 19 19 19 19 18 18 19 19 19 19 18 19 19 18 18 19
20 21 23 24 25 25 26 26 24 22 22 20 18 17 17 17 17 17 18 18 19 19 20 20 20 20 20 20 20 20 19 20 19 19 19 19 19 19 18 19 19 19 19 18 19 19 19 18 19
22 23 23 24 26 26 26 24 24 21 20 18 18 17 17 17 18 17 18 18 19 20 20 20 21 21 20 20 20 20 20 19 19 19 19 19 19 19 19 19 19 19 19 19 19 18 18 19 19
23 22 23 25 26 25 25 22 21 20 19 18 18 18 17 17 17 18 19 19 20 20 20 21 21 21 20 20 20 19 20 19 20 20 19 19 19 19 19 19 19 19 19 19 19 18 18 19 19
22 21 20 23 26 26 25 21 20 19 19 18 18 18 18 18 18 18 19 19 19 20 20 21 21 21 20 20 19 19 19 20 20 20 19 19 19 19 20 19 19 19 19 19 19 19 18 19 19
19 19 21 24 25 25 25 21 20 19 19 19 19 18 18 18 18 18 18 19 20 20 20 20 21 20 20 20 20 19 20 20 20 20 19 19 19 19 20 19 19 19 19 19 19 19 19 19 19
18 20 21 22 24 24 24 21 20 19 19 19 19 19 19 18 18 19 19 19 20 20 20 20 20 21 20 20 20 19 19 20 20 20 20 20 20 20 20 20 19 19 19 19 19 19 19 19 20
21 22 22 24 25 24 24 22 20 19 20 19 19 19 19 19 19 19 19 19 20 20 20 20 20 20 20 20 20 20 19 20 20 20 20 20 20 20 20 20 20 19 19 19 19 19 19 19 20
20 20 21 23 25 24 24 23 21 20 20 20 20 19 19 19 19 19 19 19 19 20 20 20 20 20 20 20 20 20 20 20 20 20 20 20 20 20 19 19 19 19 19 19 19 18 19 19 19
19 20 21 22 24 25 23 22 22 21 21 21 20 20 19 19 19 19 20 20 20 20 20 20 20 20 20 20 20 20 20 20 20 20 20 20 20 20 19 19 19 19 19 19 19 19 19 19 19
18 22 23 23 24 24 23 19 19 22 21 21 21 21 20 20 20 20 20 20 20 20 20 20 20 21 21 21 20 20 20 20 20 20 20 20 20 20 19 19 19 19 19 19 19 18 19 19 20
21 23 23 23 23 22 23 20 20 21 21 20 21 22 21 20 20 21 20 21 21 20 21 21 21 21 21 21 20 21 21 21 21 20 20 20 19 20 20 19 19 19 19 19 19 19 19 19 20
24 23 22 22 22 22 22 22 21 20 21 22 22 22 22 21 21 21 23 22 22 21 21 21 21 21 21 21 21 21 21 21 21 21 20 20 20 20 20 20 19 19 19 19 19 19 19 19 19
22 19 18 18 19 21 20 21 25 22 24 24 23 23 22 22 22 21 21 21 22 22 21 22 21 21 21 21 21 21 21 21 21 21 21 20 20 20 20 20 19 19 19 19 19 19 19 19 19
21 21 17 18 17 21 20 20 23 25 25 25 25 24 24 23 22 22 23 22 22 23 21 22 22 22 22 22 21 21 21 21 21 21 21 21 20 20 20 20 20 20 19 19 19 19 19 19 19
21 20 21 19 18 18 20 21 23 25 23 24 24 25 25 23 23 23 23 23 23 22 22 23 23 22 22 22 22 22 22 22 22 22 21 21 21 20 20 20 20 20 20 20 19 19 19 19 19
22 20 21 16 20 19 19 21 24 23 23 23 23 25 25 25 24 23 24 24 24 23 23 23 24 24 23 23 22 22 22 22 22 22 22 21 21 21 20 20 20 20 20 20 20 20 19 19 20
20 21 20 20 18 21 18 21 20 23 24 23 24 25 25 25 24 24 25 24 24 23 22 23 23 24 23 23 23 22 22 22 22 22 22 22 22 21 20 21 21 21 21 20 20 20 20 20 20
14 16 20 20 19 17 18 23 25 24 23 23 24 27 29 27 25 25 25 24 24 23 23 23 23 23 23 24 23 23 23 23 22 22 22 22 22 22 21 21 21 21 21 21 21 20 20 20 20

GFSSGP_850_temp_069.txt.gz
Temp
18 17 16 17 18 19 21 20 20 22 23 22 22 22 22 20 21 21 17 17 17 17 17 18 19 19 19 19 19 19 19 19 18 18 18 18 17 17 17 18 18 17 17 18 18 18 18 18 18
17 16 16 17 20 22 22 21 20 21 23 22 21 21 21 19 16 17 16 17 18 18 16 18 19 19 19 19 19 18 17 18 18 18 18 18 18 18 18 18 18 17 17 18 18 18 18 18 17
17 17 17 18 20 22 22 22 21 20 22 22 19 19 19 17 16 16 16 17 18 18 18 18 19 19 19 18 18 18 18 18 17 18 18 18 18 18 17 18 17 17 17 17 17 17 18 18 17
17 17 17 19 22 22 22 23 22 21 22 21 20 19 16 16 15 17 17 17 18 19 18 19 19 19 17 18 18 18 18 18 18 18 18 17 18 17 18 17 18 17 17 17 17 17 17 17 17
17 17 20 21 21 22 22 22 22 23 21 21 20 18 16 15 16 17 18 17 17 17 18 19 19 19 19 17 18 18 18 18 18 18 18 18 17 18 18 17 17 17 17 17 17 17 17 17 17
18 18 21 22 21 22 22 20 22 23 20 19 19 18 16 15 16 16 17 17 18 18 18 19 19 19 18 18 18 18 18 18 18 18 18 17 18 18 18 18 17 17 17 17 17 17 17 17 17
18 20 22 22 23 23 23 21 22 22 21 21 19 19 15 15 15 16 16 17 18 17 19 19 19 18 17 18 18 18 18 18 18 18 18 18 18 18 17 17 17 17 17 17 17 17 17 17 17
19 21 22 22 22 24 23 22 22 23 21 19 19 19 16 15 16 15 16 16 17 17 19 19 19 18 17 17 18 18 17 18 18 18 18 17 17 18 18 17 17 17 17 17 17 17 17 17 17
19 20 23 24 24 24 23 23 22 20 19 20 19 18 18 15 16 15 16 16 17 17 19 19 19 18 18 17 18 18 18 18 18 18 18 18 18 18 18 17 17 17 18 18 18 18 18 17 17
20 20 23 24 25 24 24 24 22 22 21 19 18 17 16 15 16 15 16 16 16 18 19 19 18 19 19 18 18 19 18 19 18 18 18 19 18 18 18 18 18 17 18 18 18 18 18 18 17
21 21 22 24 24 24 25 24 23 23 22 20 19 17 16 16 16 15 16 16 16 19 18 19 19 19 19 18 19 19 19 19 19 18 19 19 19 18 18 18 18 17 18 18 18 18 18 18 18
21 21 22 23 24 24 24 24 24 23 24 22 19 18 17 17 16 16 16 16 16 19 19 19 19 19 19 19 19 19 19 19 19 19 19 19 19 18 18 18 18 17 18 18 18 18 18 18 18
21 22 22 23 23 24 24 25 25 23 21 20 18 17 17 17 17 16 16 16 17 19 19 19 19 19 19 19 19 19 19 18 19 19 18 18 18 18 18 18 18 18 18 18 18 18 18 18 18
22 22 23 23 24 24 25 25 24 21 20 18 17 17 17 17 17 16 16 16 18 20 20 20 20 20 19 19 19 19 19 19 19 19 19 19 19 18 18 18 18 18 18 18 18 18 18 18 19
22 22 23 24 25 26 25 24 24 20 19 18 18 17 18 17 17 16 16 16 20 20 20 20 20 20 20 19 19 19 19 19 19 19 19 19 19 18 19 18 18 18 18 18 18 18 18 18 19
23 23 23 26 26 26 26 26 21 19 19 19 18 17 17 17 17 16 16 16 20 20 20 20 20 20 20 19 19 19 19 19 19 19 19 19 19 19 19 19 18 18 18 18 18 18 18 19 19
22 24 23 25 26 27 26 25 21 19 20 19 18 18 18 18 17 17 17 17 19 20 20 20 20 20 20 20 19 19 19 19 19 19 19 19 19 19 18 18 18 18 18 18 18 18 19 19 19
23 23 24 25 26 27 26 25 22 20 20 20 19 18 18 18 18 17 17 17 19 20 20 20 20 20 20 20 19 19 19 19 19 19 19 19 19 19 18 19 18 18 18 18 19 19 19 19 19
23 23 25 25 26 26 26 26 23 20 20 20 19 19 19 18 18 18 17 17 18 19 20 20 20 20 20 20 20 19 19 19 19 20 20 19 19 19 19 19 18 19 19 19 19 19 19 19 19
22 22 23 25 25 26 27 26 25 22 21 20 20 19 19 19 19 18 18 17 17 19 20 20 20 20 20 20 20 20 20 20 20 20 20 20 19 19 19 19 19 19 18 18 18 19 19 19 19
21 22 22 24 25 26 25 25 24 22 21 21 20 20 19 19 19 18 18 18 18 19 20 21 21 21 20 20 20 20 20 19 19 20 20 20 20 19 19 19 18 19 19 18 18 18 19 19 19
21 22 22 22 23 25 26 25 24 24 22 22 21 20 20 20 19 19 19 18 18 19 20 20 21 21 20 20 20 20 20 20 20 20 19 19 20 20 19 19 19 19 19 18 18 18 19 19 18
22 22 22 22 23 23 25 24 28 25 24 23 23 22 21 21 20 20 19 19 19 19 20 20 20 20 21 20 20 20 20 20 20 20 19 19 19 19 20 19 19 18 19 18 19 18 18 19 19
23 22 22 23 23 22 24 24 26 26 25 25 24 22 22 21 21 20 20 19 19 19 20 20 20 20 20 20 20 20 20 20 20 20 20 19 19 19 19 19 19 19 19 19 19 18 18 18 19
22 22 21 20 21 22 25 24 25 27 27 28 26 24 22 22 21 21 20 20 19 19 19 20 20 20 20 20 20 20 20 20 20 20 20 20 20 20 20 20 20 19 19 19 18 19 19 19 19
21 23 22 21 22 23 25 23 25 28 28 26 26 26 24 22 22 21 20 20 19 19 19 21 21 20 21 20 20 20 20 20 20 20 20 20 20 21 21 20 20 20 19 19 19 18 19 19 19
21 22 24 22 21 23 25 25 26 26 28 28 28 26 25 23 22 21 21 21 20 20 20 20 21 21 21 21 21 21 21 21 21 21 21 20 20 20 21 21 20 20 20 19 19 19 19 19 19
21 23 21 22 20 21 23 24 26 26 27 28 27 27 26 25 23 22 21 21 21 22 23 22 22 22 21 21 21 21 21 21 21 21 21 21 20 20 20 21 21 20 20 20 20 19 19 19 19
19 21 21 22 23 22 22 24 27 27 28 28 30 28 27 26 24 23 22 21 21 21 21 22 23 22 22 22 22 22 22 22 22 21 21 21 21 20 20 21 21 21 20 20 20 20 20 20 19
14 18 20 21 21 22 23 24 27 27 28 27 27 27 27 26 26 24 23 22 21 20 21 23 23 23 23 23 23 23 23 22 22 22 22 22 21 21 21 21 21 21 21 21 20 20 20 20 20

GFSSGP_850_temp_072.txt.gz
Temp
18 17 17 17 19 22 23 22 22 25 25 25 24 25 25 24 24 22 18 18 18 17 16 17 18 19 19 19 19 19 19 19 18 18 18 18 18 18 17 18 18 17 17 18 18 18 17 17 18
17 17 17 17 22 23 26 21 23 24 25 24 24 24 24 24 20 18 18 18 18 18 17 16 18 19 19 19 18 17 17 18 18 18 18 18 17 18 18 18 17 17 17 18 18 17 16 17 17
17 17 17 21 23 25 26 24 25 25 24 22 23 23 23 21 19 18 19 18 18 18 18 17 18 19 19 19 18 18 17 18 18 18 18 17 17 18 18 17 17 17 18 18 18 17 17 17 17
18 17 19 20 24 26 25 25 23 25 24 24 24 24 20 18 19 19 19 19 18 18 18 19 18 18 18 18 18 18 18 18 18 18 17 17 17 17 18 17 17 17 18 17 17 17 17 17 17
18 18 22 25 24 25 26 26 25 24 25 24 24 22 19 18 18 19 19 19 19 19 18 17 17 17 18 18 18 18 18 18 18 18 17 18 17 17 17 17 17 17 18 17 17 17 17 17 17
20 21 24 24 22 26 27 24 26 27 25 24 24 22 18 17 18 19 19 19 19 19 18 16 17 18 18 18 18 18 18 18 18 18 18 18 18 17 17 17 18 17 17 18 17 17 17 17 17
20 23 25 24 23 26 26 24 27 26 25 25 24 24 18 17 19 19 19 20 20 19 18 17 17 17 18 18 18 17 17 18 18 18 18 17 18 17 17 18 18 18 18 18 17 17 17 17 17
21 24 26 26 25 27 26 25 26 27 26 24 23 23 19 18 18 19 20 19 20 19 18 17 17 17 17 16 18 18 18 18 18 18 18 18 18 18 18 18 18 17 18 18 18 17 17 17 17
22 24 26 28 26 28 25 25 23 25 24 23 23 23 21 16 17 20 19 19 19 19 18 18 18 17 17 17 17 17 18 18 18 18 18 18 18 17 17 18 18 18 18 18 18 18 17 18 18
25 25 27 29 29 29 26 27 26 25 24 23 22 21 19 17 18 20 20 20 19 19 19 19 19 18 18 18 16 17 17 17 17 17 17 18 17 18 17 18 18 18 18 18 18 18 18 18 18
25 24 27 28 28 26 28 27 26 27 26 25 23 20 19 18 18 20 20 20 19 19 19 19 18 18 18 18 18 18 18 17 17 17 17 17 17 18 18 17 17 17 17 18 18 17 18 18 18
26 26 26 28 27 26 28 28 28 27 27 25 23 21 20 19 20 20 20 20 20 19 19 18 18 17 18 18 18 18 18 18 18 17 18 17 18 18 18 19 18 17 18 18 18 18 17 18 18
26 27 26 26 26 27 27 28 28 27 25 24 22 21 20 21 20 21 20 20 19 19 19 18 17 17 17 17 18 18 18 18 19 17 17 18 18 18 17 17 18 18 18 18 18 18 18 18 18
27 26 27 27 27 27 27 28 27 27 24 24 22 21 21 21 20 20 20 20 19 19 19 18 17 17 17 17 17 17 18 18 18 18 18 18 18 18 17 18 18 18 18 18 18 18 18 19 19
26 27 28 27 27 28 28 28 28 25 24 23 22 22 22 21 20 20 20 19 19 18 19 18 17 17 17 17 19 17 18 18 18 18 18 18 18 18 18 18 18 18 18 18 17 19 18 19 19
26 27 28 30 29 28 28 29 28 24 24 23 22 22 22 21 21 20 20 20 19 19 18 18 18 18 17 17 19 18 18 18 18 19 18 18 18 18 18 18 18 18 18 18 18 18 19 20 19
27 28 28 29 29 30 29 29 27 25 25 24 23 22 22 21 21 20 20 20 19 19 18 18 18 18 17 18 18 18 18 18 19 19 19 19 18 19 18 18 18 18 18 19 18 19 19 19 20
28 27 30 29 29 30 29 29 27 25 25 25 23 22 22 22 21 20 20 20 20 19 18 18 18 18 17 17 19 18 18 18 18 19 19 19 18 19 18 18 18 18 18 19 19 19 19 20 20
27 29 29 30 30 29 30 30 28 25 25 25 24 23 22 22 22 21 20 20 20 19 18 18 18 17 17 18 18 18 19 19 19 19 19 19 19 19 19 18 18 18 18 19 18 18 19 19 19
26 26 28 30 30 29 30 30 30 27 26 26 25 24 23 23 22 21 20 20 20 19 19 18 18 18 19 18 18 19 19 19 19 19 19 19 19 19 19 18 18 18 18 18 18 18 20 19 19
25 26 27 28 29 29 29 29 30 29 26 26 25 25 24 23 23 21 21 20 20 20 19 18 21 21 20 18 18 18 18 18 19 19 19 19 20 19 19 19 19 18 18 18 18 18 19 21 19
25 27 26 27 27 27 29 28 29 30 28 27 26 25 24 24 23 22 21 21 21 20 19 18 18 21 21 20 18 18 19 20 20 20 20 20 20 19 19 19 19 19 18 19 18 18 19 20 20
25 27 26 26 26 28 29 28 31 31 29 28 27 26 25 24 24 23 22 22 21 21 20 19 18 20 21 21 19 18 19 20 20 20 19 19 19 20 19 20 19 19 18 18 18 19 19 19 20
25 25 25 26 26 26 28 28 30 29 30 29 29 27 26 26 24 24 23 22 22 21 20 20 18 20 21 21 21 20 19 20 20 19 20 20 19 19 19 19 20 20 18 19 18 18 19 18 19
24 25 25 24 25 25 29 28 29 32 31 31 31 28 27 26 25 24 24 23 22 21 21 20 19 19 21 20 21 21 21 19 19 19 19 20 20 20 20 20 20 19 19 18 18 19 18 19 18
24 25 26 24 26 27 28 28 29 31 30 30 31 30 28 27 26 25 24 23 23 22 21 20 19 21 21 20 21 21 21 19 19 19 20 20 20 21 20 19 19 20 19 18 18 18 18 18 18
25 24 27 27 28 27 29 29 30 31 31 30 30 30 30 28 27 26 25 24 23 22 21 20 19 20 21 21 21 21 21 20 19 19 20 19 19 20 19 19 19 19 19 19 18 19 19 18 19
24 26 24 26 24 25 28 29 28 29 29 31 31 31 30 30 28 27 26 24 24 23 22 21 20 20 22 21 21 21 21 21 21 20 21 20 19 20 20 20 20 19 20 20 20 19 19 18 19
23 23 25 26 26 26 26 28 31 30 30 30 31 31 31 31 30 28 27 25 24 23 23 21 20 19 19 20 21 21 21 21 21 21 21 21 21 21 21 20 21 20 19 20 20 20 19 19 19
20 23 25 24 24 26 27 29 31 30 31 31 31 31 31 31 30 29 27 26 25 24 23 22 21 20 20 20 21 22 22 22 20 21 21 21 21 21 21 21 21 21 19 19 20 20 20 19 19

GFSSGP_850_temp_075.txt.gz
Temp
19 18 18 18 20 22 25 25 24 28 28 28 28 27 26 26 25 22 20 19 19 18 17 18 18 18 18 18 19 19 19 19 19 18 18 18 18 17 18 18 18 17 18 18 18 17 17 18 18
19 19 18 19 22 23 24 24 25 27 28 27 27 27 26 25 23 20 20 19 18 18 17 17 18 19 19 18 19 19 19 19 19 18 18 18 18 18 18 17 17 17 18 18 18 17 17 17 17
19 19 20 22 25 24 26 27 27 28 28 27 26 27 24 24 21 21 20 19 19 19 19 17 18 19 18 18 18 18 18 18 18 18 18 18 18 18 18 18 17 17 17 18 18 17 17 17 17
19 19 21 23 26 27 26 27 29 28 24 26 26 26 23 23 22 21 21 19 19 19 19 18 18 18 18 18 18 18 18 18 18 18 18 18 18 18 18 18 18 18 17 17 17 17 17 17 17
20 20 23 25 26 28 28 26 28 27 27 27 26 24 22 22 22 22 20 20 21 21 18 17 18 18 18 18 18 18 18 18 18 18 18 18 18 17 18 18 18 18 17 17 17 17 17 17 17
20 22 23 23 26 27 28 28 29 28 27 27 25 24 22 20 22 22 21 21 23 21 19 17 18 18 18 18 19 19 18 18 18 18 18 18 18 18 18 18 18 18 18 18 17 17 17 17 17
22 23 25 27 26 26 29 27 29 27 28 28 26 25 22 21 21 21 22 23 23 21 19 18 17 18 18 18 18 18 18 18 18 18 18 18 18 18 18 19 18 18 18 18 18 17 17 18 18
23 25 23 26 27 25 29 29 28 29 26 27 26 25 22 22 21 21 23 23 23 21 19 19 18 17 17 17 18 18 18 18 18 18 18 18 19 18 18 18 18 18 18 18 18 18 18 18 18
25 26 26 27 30 25 28 26 26 25 27 27 27 26 23 22 22 22 23 23 22 21 20 20 19 18 18 17 17 18 18 18 18 19 19 18 18 18 17 18 19 18 18 18 18 18 19 18 18
27 29 25 25 25 20 29 28 25 29 28 27 26 25 22 22 22 23 23 23 22 21 21 21 21 20 19 19 18 17 17 17 18 18 19 19 18 18 18 18 19 18 18 18 19 18 17 17 18
28 28 21 24 30 28 29 27 28 30 29 28 26 23 21 22 23 23 23 23 22 21 22 21 21 20 20 20 19 19 19 19 18 18 18 19 19 19 19 19 19 19 19 18 19 18 18 18 19
28 29 29 24 30 27 27 28 30 27 21 27 25 22 21 22 23 24 23 23 22 22 22 21 20 20 20 20 21 21 21 20 19 19 18 19 18 19 18 19 19 19 18 19 19 19 19 19 18
29 30 30 29 29 29 28 28 26 29 29 27 24 22 22 23 23 24 23 23 22 21 22 21 20 19 19 19 20 21 21 21 20 19 19 20 19 19 19 19 18 18 19 19 19 19 19 19 20
30 29 30 30 30 30 28 30 30 29 28 26 24 23 23 23 24 24 23 23 22 21 21 20 19 18 18 19 19 20 20 20 21 20 19 19 19 18 19 19 19 19 19 19 19 19 19 20 20
29 29 30 31 31 31 29 29 31 29 28 26 25 24 24 24 24 24 23 23 22 21 21 20 19 18 18 18 18 19 19 21 20 19 20 18 18 19 19 19 19 19 19 19 19 19 20 20 19
29 30 30 32 31 31 31 30 31 28 28 27 26 25 24 24 24 24 23 23 22 22 21 20 20 19 18 18 18 20 20 21 20 19 19 18 18 19 18 19 19 19 19 19 19 19 18 20 20
29 29 30 31 33 32 31 29 22 29 28 27 26 25 25 24 24 23 23 22 22 21 21 20 20 20 18 18 18 19 20 20 20 20 19 19 19 19 18 19 18 19 19 20 20 19 19 20 20
30 30 32 31 33 32 32 29 21 25 29 28 27 26 25 25 24 23 23 23 22 21 20 20 20 20 18 18 18 19 19 20 20 20 20 20 19 18 18 19 18 19 19 19 20 20 20 20 20
32 32 32 33 34 32 31 31 23 29 29 29 28 26 26 25 25 23 23 23 22 21 20 20 19 19 18 18 19 19 20 20 21 21 20 19 19 19 19 19 18 19 20 18 19 20 20 21 21
30 30 31 33 34 33 32 31 31 31 30 29 28 27 26 26 25 24 23 23 22 21 21 19 19 19 18 19 19 20 21 21 21 21 19 19 19 19 19 18 19 19 19 18 19 19 20 21 21
29 29 30 31 33 33 32 31 30 24 27 30 29 27 27 26 25 24 23 23 22 22 21 19 19 18 18 19 19 19 20 21 21 21 20 20 19 19 19 20 18 19 19 19 18 19 19 20 21
28 29 30 30 31 30 32 30 32 26 21 30 30 29 28 27 26 25 24 23 23 22 21 20 19 18 19 19 19 19 20 21 22 21 21 20 20 20 19 18 18 18 18 19 19 19 20 20 21
28 30 29 29 29 31 31 30 33 33 30 31 31 30 29 27 26 26 25 24 23 23 22 20 19 18 18 19 20 19 20 21 21 22 21 21 19 20 20 19 18 18 19 19 19 19 20 20 21
28 28 29 29 29 28 30 31 32 32 32 31 31 30 29 29 27 27 26 25 24 23 22 21 19 19 19 20 20 19 20 21 22 21 21 21 21 19 19 19 19 18 19 19 19 19 20 19 21
27 27 26 26 27 27 31 30 32 34 33 32 33 31 30 29 28 27 26 25 24 24 23 22 20 19 20 20 20 19 20 21 21 21 21 21 22 22 21 20 19 19 19 18 19 19 18 19 19
27 28 27 25 28 29 31 30 31 34 33 31 33 32 31 30 29 28 27 26 25 24 23 22 21 20 20 21 21 21 20 20 20 20 21 21 22 22 22 21 19 19 19 18 18 18 19 19 19
27 26 29 29 31 31 32 31 33 34 34 31 26 32 31 30 30 29 27 26 26 24 23 22 22 20 20 21 21 22 21 21 20 21 21 21 21 22 21 20 19 19 19 19 19 19 20 19 19
27 29 27 28 26 27 31 32 31 32 33 33 33 33 32 31 30 30 29 27 26 25 24 23 22 20 20 20 21 22 22 22 21 20 20 20 21 21 21 20 19 19 19 19 19 20 20 20 20
25 25 26 28 28 28 29 31 34 33 32 33 33 32 32 32 31 30 30 28 27 26 25 23 22 21 19 19 20 20 21 22 22 20 20 20 20 20 20 20 19 19 19 19 19 19 20 20 19
26 26 26 26 26 28 30 31 34 34 34 33 32 33 32 32 32 32 31 29 28 26 25 24 23 22 20 20 19 20 21 21 21 21 20 20 20 20 20 20 19 19 19 19 19 19 20 19 20